GW3945 Weather Reports


Display with metric or nautical units.
time (UTC)temp
F
wind
direction
speed
MPH
gust
MPH
rain 1hr
in
rain 24hr
in
rain mn
in
humidity
%
barometer
mb
20260505163421 67 150 0.0 0.0 0.00 0.00 0.00 67 1010.3
20260505162920 67 180 1.0 3.0 0.00 0.00 0.00 69 1010.7
20260505162415 67 166 2.0 2.0 0.00 0.00 0.00 67 1010.7
20260505161912 67 173 0.0 0.0 0.00 0.00 0.00 69 1010.6
20260505161409 67 179 0.0 0.0 0.00 0.00 0.00 69 1010.7
20260505160907 67 153 0.0 0.0 0.00 0.00 0.00 65 1010.8
20260505160405 67 176 0.0 0.0 0.00 0.00 0.00 69 1010.9
20260505153343 67 164 0.0 0.0 0.00 0.00 0.00 71 1011.0
20260505152840 67 168 0.0 0.0 0.00 0.00 0.00 70 1010.9
20260505152332 67 175 0.0 0.0 0.00 0.00 0.00 69 1011.0
20260505151831 66 172 0.0 0.0 0.00 0.00 0.00 68 1011.1
20260505151328 66 173 0.0 0.0 0.00 0.00 0.00 69 1010.8
20260505150825 66 154 0.0 0.0 0.00 0.00 0.00 70 1010.6
20260505150322 66 182 2.0 3.0 0.00 0.00 0.00 70 1010.6
20260505140247 62 161 0.0 0.0 0.00 0.00 0.00 76 1010.5
20260505130211 59 168 0.0 0.0 0.00 0.00 0.00 79 1010.3
20260505124701 59 165 0.0 0.0 0.00 0.00 0.00 78 1010.1
20260505124157 59 163 0.0 0.0 0.00 0.00 0.00 79 1009.8
20260505123653 59 169 0.0 0.0 0.00 0.00 0.00 79 1010.2
20260505123150 58 171 0.0 0.0 0.00 0.00 0.00 79 1009.9
20260505122647 58 163 0.0 0.0 0.00 0.00 0.00 80 1010.1
20260505122144 58 163 0.0 0.0 0.00 0.00 0.00 79 1010.3
20260505121641 58 172 0.0 0.0 0.00 0.00 0.00 79 1010.4
20260505121137 58 167 0.0 0.0 0.00 0.00 0.00 79 1010.3
20260505120633 58 167 0.0 0.0 0.00 0.00 0.00 79 1010.0
20260505120129 58 166 0.0 0.0 0.00 0.00 0.00 80 1010.2
20260505115623 58 164 0.0 0.0 0.00 0.00 0.00 79 1009.7
20260505115121 58 163 0.0 0.0 0.00 0.00 0.00 79 1009.9
20260505114618 57 165 0.0 0.0 0.00 0.00 0.00 79 1009.7
20260505114114 57 164 0.0 0.0 0.00 0.00 0.00 79 1009.7
20260505113611 58 163 0.0 0.0 0.00 0.00 0.00 78 1009.7
20260505113108 57 162 0.0 0.0 0.00 0.00 0.00 78 1009.5
20260505112604 57 163 0.0 0.0 0.00 0.00 0.00 80 1009.6
20260505112102 57 166 0.0 0.0 0.00 0.00 0.00 80 1009.5
20260505111556 58 165 0.0 0.0 0.00 0.00 0.00 78 1009.6
20260505111052 57 166 0.0 0.0 0.00 0.00 0.00 77 1009.5
20260505110549 58 170 0.0 0.0 0.00 0.00 0.00 78 1009.4
20260505102021 58 172 0.0 0.0 0.00 0.00 0.00 76 1009.1
20260505101520 59 173 0.0 0.0 0.00 0.00 0.00 76 1008.9
20260505101016 59 168 0.0 0.0 0.00 0.00 0.00 74 1009.1
20260505100513 59 168 0.0 0.0 0.00 0.00 0.00 74 1008.9
20260505100010 59 169 0.0 0.0 0.00 0.00 0.00 73 1008.9
20260505095506 59 169 0.0 0.0 0.00 0.00 0.00 73 1008.8
20260505095002 59 171 0.0 0.0 0.00 0.00 0.00 73 1009.0
20260505094459 58 172 0.0 0.0 0.00 0.00 0.00 75 1008.9
20260505093955 59 172 0.0 0.0 0.00 0.00 0.00 76 1008.8
20260505093452 60 172 0.0 0.0 0.00 0.00 0.00 73 1009.0
20260505092949 60 171 0.0 0.0 0.00 0.00 0.00 69 1008.9
20260505092446 60 169 0.0 0.0 0.00 0.00 0.00 69 1008.6
20260505091944 60 170 0.0 0.0 0.00 0.00 0.00 68 1008.5
20260505091441 60 170 0.0 0.0 0.00 0.00 0.00 68 1008.9
20260505090939 60 173 0.0 0.0 0.00 0.00 0.00 69 1008.9
20260505090437 60 169 0.0 0.0 0.00 0.00 0.00 69 1009.0
20260505085934 60 167 0.0 0.0 0.00 0.00 0.00 68 1009.0
20260505085432 61 166 0.0 0.0 0.00 0.00 0.00 68 1009.1
20260505084930 61 168 0.0 0.0 0.00 0.00 0.00 67 1009.0
20260505084428 61 166 0.0 0.0 0.00 0.00 0.00 67 1009.5
20260505083926 61 173 0.0 0.0 0.00 0.00 0.00 67 1009.2
20260505083423 61 168 0.0 0.0 0.00 0.00 0.00 67 1008.6
20260505082919 61 169 0.0 0.0 0.00 0.00 0.00 67 1008.9
20260505082415 62 166 0.0 0.0 0.00 0.00 0.00 66 1008.9
20260505081912 62 167 0.0 0.0 0.00 0.00 0.00 66 1008.9
20260505081409 62 169 0.0 0.0 0.00 0.00 0.00 66 1008.8
20260505080905 62 171 0.0 0.0 0.00 0.00 0.00 66 1008.5
20260505080401 62 161 0.0 0.0 0.00 0.00 0.00 64 1008.6
20260505075857 62 166 0.0 0.0 0.00 0.00 0.00 65 1008.8
20260505075354 62 177 0.0 0.0 0.00 0.00 0.00 65 1008.8
20260505074851 62 168 0.0 0.0 0.00 0.00 0.00 65 1008.6
20260505074348 62 171 0.0 0.0 0.00 0.00 0.00 65 1008.8
20260505073846 62 165 0.0 0.0 0.00 0.00 0.00 64 1008.6
20260505073343 62 172 0.0 0.0 0.00 0.00 0.00 64 1008.8
20260505072840 63 174 0.0 0.0 0.00 0.00 0.00 63 1008.5
20260505072336 63 173 0.0 0.0 0.00 0.00 0.00 64 1008.6
20260505071832 62 176 0.0 0.0 0.00 0.00 0.00 64 1008.6
20260505071329 63 171 0.0 0.0 0.00 0.00 0.00 63 1008.8
20260505070827 63 169 0.0 0.0 0.00 0.00 0.00 63 1008.5
20260505070324 63 163 1.0 2.0 0.00 0.00 0.00 63 1008.5
20260505065819 63 172 0.0 0.0 0.00 0.00 0.00 62 1008.5
20260505065316 63 167 0.0 0.0 0.00 0.00 0.00 62 1008.8
20260505064813 63 171 0.0 0.0 0.00 0.00 0.00 62 1008.8
20260505064310 63 162 0.0 0.0 0.00 0.00 0.00 62 1008.8
20260505063808 64 166 0.0 0.0 0.00 0.00 0.00 61 1008.9
20260505063304 64 167 0.0 0.0 0.00 0.00 0.00 62 1009.2
20260505062800 64 171 0.0 0.0 0.00 0.00 0.00 62 1009.0
20260505062258 64 175 0.0 0.0 0.00 0.00 0.00 61 1009.0
20260505061754 64 171 0.0 0.0 0.00 0.00 0.00 61 1009.2
20260505061253 64 166 0.0 0.0 0.00 0.00 0.00 61 1009.1
20260505060750 64 163 0.0 0.0 0.00 0.00 0.00 60 1009.4
20260505060247 64 175 0.0 0.0 0.00 0.00 0.00 60 1009.4
20260505055742 64 170 0.0 0.0 0.00 0.00 0.00 60 1009.3
20260505055238 64 166 0.0 0.0 0.00 0.00 0.00 60 1009.4
20260505054736 64 166 0.0 0.0 0.00 0.00 0.00 60 1009.5
20260505054233 65 169 0.0 0.0 0.00 0.00 0.00 60 1009.5
20260505053732 64 172 0.0 0.0 0.00 0.00 0.00 60 1009.4
20260505053222 65 169 0.0 0.0 0.00 0.00 0.00 59 1009.3
20260505052719 65 175 0.0 0.0 0.00 0.00 0.00 59 1009.3
20260505052216 65 165 0.0 0.0 0.00 0.00 0.00 58 1009.3
20260505051713 65 167 0.0 0.0 0.00 0.00 0.00 58 1009.3
20260505051211 65 176 0.0 0.0 0.00 0.00 0.00 58 1009.4
20260505050709 65 172 0.0 0.0 0.00 0.00 0.00 58 1009.4
20260505050207 65 169 0.0 0.0 0.00 0.00 0.00 58 1009.2
20260505041637 66 170 0.0 0.0 0.00 0.00 0.00 57 1009.3
20260505041134 66 167 0.0 0.0 0.00 0.00 0.00 57 1009.1
20260505040631 66 169 0.0 0.0 0.00 0.00 0.00 57 1009.2
20260505040128 66 171 0.0 0.0 0.00 0.00 0.00 56 1008.9
20260505035624 67 173 0.0 0.0 0.00 0.00 0.00 56 1008.8
20260505035120 67 163 0.0 0.0 0.00 0.00 0.00 55 1008.9
20260505034617 67 168 0.0 0.0 0.00 0.00 0.00 54 1008.9
20260505034114 67 168 0.0 0.0 0.00 0.00 0.00 55 1008.8
20260505033611 67 164 0.0 0.0 0.00 0.00 0.00 54 1008.9
20260505033110 68 169 0.0 0.0 0.00 0.00 0.00 54 1009.0
20260505032607 68 178 0.0 0.0 0.00 0.00 0.00 54 1008.8
20260505032103 68 176 0.0 0.0 0.00 0.00 0.00 53 1008.8
20260505031601 68 170 0.0 0.0 0.00 0.00 0.00 53 1008.6
20260505031057 68 166 0.0 0.0 0.00 0.00 0.00 52 1008.5
20260505030554 68 176 0.0 0.0 0.00 0.00 0.00 52 1008.9
20260505030050 68 162 0.0 0.0 0.00 0.00 0.00 52 1008.5
20260505025545 68 168 0.0 0.0 0.00 0.00 0.00 52 1008.4
20260505025045 69 161 0.0 0.0 0.00 0.00 0.00 52 1008.4
20260505024541 69 166 0.0 0.0 0.00 0.00 0.00 51 1008.4
20260505024033 69 172 0.0 0.0 0.00 0.00 0.00 51 1008.4
20260505023530 69 168 0.0 0.0 0.00 0.00 0.00 51 1008.5
20260505023028 69 166 0.0 0.0 0.00 0.00 0.00 50 1008.3
20260505022525 70 162 0.0 0.0 0.00 0.00 0.00 50 1008.5
20260505022022 70 173 0.0 0.0 0.00 0.00 0.00 49 1008.6
20260505021518 70 172 0.0 0.0 0.00 0.00 0.00 50 1008.3
20260505021015 70 165 0.0 0.0 0.00 0.00 0.00 49 1008.3
20260505020515 70 172 0.0 0.0 0.00 0.00 0.00 49 1008.3
20260505020012 71 185 0.0 0.0 0.00 0.00 0.00 49 1008.2
20260505015509 70 171 0.0 0.0 0.00 0.00 0.00 49 1007.9
20260505015006 71 155 0.0 0.0 0.00 0.00 0.00 48 1008.1
20260505014503 71 164 0.0 0.0 0.00 0.00 0.00 48 1008.3
20260505014000 71 176 0.0 0.0 0.00 0.00 0.00 48 1008.3
20260505013457 71 169 0.0 0.0 0.00 0.00 0.00 48 1008.2
20260505012954 71 172 0.0 0.0 0.00 0.00 0.00 47 1008.4
20260505012452 71 175 0.0 0.0 0.00 0.00 0.00 47 1008.1
20260505011949 71 172 0.0 0.0 0.00 0.00 0.00 47 1008.3
20260505011445 71 165 0.0 0.0 0.00 0.00 0.00 47 1008.1
20260505010942 71 214 0.0 1.0 0.00 0.00 0.00 47 1008.2
20260505010438 72 169 0.0 0.0 0.00 0.00 0.00 46 1008.2
20260505005934 72 190 0.0 0.0 0.00 0.00 0.00 47 1008.1
20260505005431 72 165 0.0 0.0 0.00 0.00 0.00 46 1008.3
20260505004929 72 169 0.0 0.0 0.00 0.00 0.00 45 1008.3
20260505004425 73 164 0.0 0.0 0.00 0.00 0.00 45 1008.0
20260505003922 73 175 0.0 0.0 0.00 0.00 0.00 45 1008.0
20260505003419 73 171 0.0 0.0 0.00 0.00 0.00 45 1008.2
20260505002915 73 173 0.0 0.0 0.00 0.00 0.00 45 1008.2
20260505002412 73 177 0.0 0.0 0.00 0.00 0.00 45 1008.0
20260505001910 74 158 0.0 0.0 0.00 0.00 0.00 45 1008.0
20260505001407 74 185 0.0 0.0 0.00 0.00 0.00 45 1008.2
20260505000904 74 166 0.0 0.0 0.00 0.00 0.00 45 1008.3
20260505000402 74 170 0.0 0.0 0.00 0.00 0.00 45 1008.2
20260504235858 74 157 0.0 0.0 0.00 0.00 0.00 45 1008.2
20260504235356 74 155 0.0 0.0 0.00 0.00 0.00 44 1008.3
20260504234852 74 165 0.0 0.0 0.00 0.00 0.00 43 1008.1
20260504234350 75 161 0.0 0.0 0.00 0.00 0.00 44 1008.4
20260504233846 75 147 0.0 0.0 0.00 0.00 0.00 45 1008.3
20260504233342 75 172 0.0 0.0 0.00 0.00 0.00 44 1008.5
20260504232839 75 153 0.0 0.0 0.00 0.00 0.00 45 1008.5
20260504232336 76 168 0.0 1.0 0.00 0.00 0.00 42 1008.5
20260504231832 76 162 2.0 2.0 0.00 0.00 0.00 42 1008.6
20260504231329 76 168 0.0 1.0 0.00 0.00 0.00 43 1008.4
20260504230825 76 217 2.0 5.0 0.00 0.00 0.00 43 1008.5
20260504230323 76 159 0.0 0.0 0.00 0.00 0.00 44 1008.4
20260504225822 77 171 0.0 0.0 0.00 0.00 0.00 44 1008.4
20260504225317 77 173 0.0 0.0 0.00 0.00 0.00 43 1008.3
20260504224815 77 168 1.0 2.0 0.00 0.00 0.00 42 1008.6
20260504224312 77 129 1.0 2.0 0.00 0.00 0.00 43 1008.5
20260504223809 77 189 0.0 0.0 0.00 0.00 0.00 43 1008.4
20260504223304 77 177 0.0 0.0 0.00 0.00 0.00 42 1008.8
20260504222801 78 178 3.0 5.0 0.00 0.00 0.00 40 1008.6
20260504222258 78 182 1.0 2.0 0.00 0.00 0.00 39 1008.5
20260504221756 78 158 2.0 3.0 0.00 0.00 0.00 39 1008.6
20260504221253 78 174 0.0 0.0 0.00 0.00 0.00 39 1008.8
20260504220749 78 166 1.0 2.0 0.00 0.00 0.00 42 1008.5
20260504220246 78 167 2.0 3.0 0.00 0.00 0.00 39 1008.4
20260504215744 79 179 2.0 2.0 0.00 0.00 0.00 41 1008.6
20260504215240 78 254 0.0 2.0 0.00 0.00 0.00 40 1008.3
20260504214736 79 179 2.0 3.0 0.00 0.00 0.00 37 1008.6
20260504214233 78 205 0.0 0.0 0.00 0.00 0.00 40 1008.2
20260504213729 79 161 2.0 5.0 0.00 0.00 0.00 42 1008.4
20260504213226 78 164 0.0 2.0 0.00 0.00 0.00 43 1008.3
20260504212723 79 198 1.0 1.0 0.00 0.00 0.00 40 1008.3
20260504212220 79 164 0.0 2.0 0.00 0.00 0.00 42 1008.0
20260504211717 80 244 0.0 0.0 0.00 0.00 0.00 41 1008.2
20260504211213 80 177 0.0 1.0 0.00 0.00 0.00 39 1008.4
20260504210711 80 167 3.0 3.0 0.00 0.00 0.00 39 1008.2
20260504210208 80 194 0.0 0.0 0.00 0.00 0.00 39 1008.3
20260504205705 79 180 0.0 1.0 0.00 0.00 0.00 38 1008.4
20260504205202 79 182 0.0 1.0 0.00 0.00 0.00 42 1008.2
20260504204700 78 231 0.0 1.0 0.00 0.00 0.00 43 1008.5
20260504204159 79 187 1.0 2.0 0.00 0.00 0.00 41 1008.4
20260504203657 78 161 1.0 2.0 0.00 0.00 0.00 43 1008.3
20260504203155 78 164 2.0 2.0 0.00 0.00 0.00 41 1008.6
20260504202654 77 144 3.0 3.0 0.00 0.00 0.00 45 1008.4
20260504202152 78 197 0.0 0.0 0.00 0.00 0.00 41 1008.5
20260504201649 79 208 2.0 2.0 0.00 0.00 0.00 40 1008.8
20260504201146 78 171 1.0 2.0 0.00 0.00 0.00 43 1008.5
20260504200643 80 177 2.0 3.0 0.00 0.00 0.00 43 1009.1
20260504200140 79 163 1.0 2.0 0.00 0.00 0.00 40 1009.1
20260504195636 78 194 0.0 0.0 0.00 0.00 0.00 43 1009.2
20260504195132 78 199 1.0 2.0 0.00 0.00 0.00 44 1009.3
20260504194629 77 147 2.0 5.0 0.00 0.00 0.00 43 1009.3
20260504194125 78 190 2.0 2.0 0.00 0.00 0.00 42 1009.3
20260504193621 78 192 0.0 0.0 0.00 0.00 0.00 42 1009.5
20260504193120 77 175 0.0 0.0 0.00 0.00 0.00 47 1009.2
20260504192617 77 158 0.0 0.0 0.00 0.00 0.00 46 1009.4
20260504192115 77 184 0.0 0.0 0.00 0.00 0.00 47 1009.4
20260504191614 77 175 1.0 2.0 0.00 0.00 0.00 43 1009.8
20260504191109 78 278 2.0 2.0 0.00 0.00 0.00 44 1009.9
20260504190606 78 159 0.0 0.0 0.00 0.00 0.00 44 1009.8
20260504185559 78 222 3.0 3.0 0.00 0.00 0.00 44 1009.9
20260504185055 78 96 1.0 1.0 0.00 0.00 0.00 44 1010.0
20260504184551 77 155 2.0 2.0 0.00 0.00 0.00 49 1010.1
20260504184046 77 236 2.0 3.0 0.00 0.00 0.00 47 1010.2
20260504183544 77 146 0.0 0.0 0.00 0.00 0.00 46 1010.0
20260504183042 77 179 1.0 1.0 0.00 0.00 0.00 46 1010.2
20260504182538 77 190 1.0 1.0 0.00 0.00 0.00 47 1010.3
20260504182036 77 261 5.0 7.0 0.00 0.00 0.00 45 1010.1
20260504181533 77 199 0.0 1.0 0.00 0.00 0.00 46 1010.3
20260504181031 77 176 0.0 0.0 0.00 0.00 0.00 47 1010.2
20260504180530 78 170 1.0 1.0 0.00 0.00 0.00 46 1010.5
20260504180028 77 170 2.0 2.0 0.00 0.00 0.00 47 1010.4
20260504175525 77 171 0.0 0.0 0.00 0.00 0.00 48 1010.5
20260504175022 77 221 0.0 0.0 0.00 0.00 0.00 47 1010.5
20260504174520 76 168 0.0 0.0 0.00 0.00 0.00 50 1010.4
20260504174016 76 209 1.0 1.0 0.00 0.00 0.00 48 1010.4
20260504173513 75 173 0.0 0.0 0.00 0.00 0.00 49 1010.4
20260504173011 76 207 1.0 3.0 0.00 0.00 0.00 47 1010.4
20260504172507 75 165 0.0 0.0 0.00 0.00 0.00 49 1010.7
20260504172003 75 195 4.0 6.0 0.00 0.00 0.00 50 1010.6
20260504171500 74 182 3.0 3.0 0.00 0.00 0.00 50 1010.7
20260504170957 75 195 1.0 1.0 0.00 0.00 0.00 50 1010.7
20260504170453 75 172 0.0 0.0 0.00 0.00 0.00 51 1011.0